Date String (YYYY-MM-DD hh:mm:ss) UTC,Instrument flags,Ambient pressure (hPa),Sample flow (lpm),Bypass flow (lpm),Sample temperature (°C),Ambient temperature (°C),ASC tube jacket temperature (°C),LED temperature (°C),Box temperature (°C),Sample RH (%),Span deviation,Mass concentration (μg/m³),Mass concentration (μg/m³),Mass concentration (μg/m³)
DateTimeUTC,F1_M11,P_M11,Q1_M11,Q2_M11,T1_M11,T2_M11,T3_M11,T4_M11,T5_M11,U1_M11,ZSPAN_M11,X0_M11,X2_M11,X1_M11
2022-07-17 12:00:00,,0830.4,5.00,0.00,29.8,28.6,00.0,38.6,31.7,23.2,0000.0,0010.22,0006.18,0005.48
2022-07-17 12:01:00,,0830.4,5.02,0.00,29.8,28.7,00.0,38.6,31.7,23.2,0000.0,0010.26,0006.20,0005.49
2022-07-17 12:02:00,,0830.4,4.99,0.00,29.8,28.7,00.0,38.6,31.7,23.2,0000.0,0010.24,0006.20,0005.48
2022-07-17 12:03:00,,0830.4,5.01,0.00,29.9,28.7,00.0,38.6,31.8,23.2,0000.0,0010.33,0006.23,0005.49
2022-07-17 12:04:00,,0830.4,5.00,0.00,29.9,28.8,00.0,38.6,31.8,23.1,0000.0,0010.53,0006.27,0005.50
2022-07-17 12:05:00,,0830.4,5.00,0.00,29.9,28.8,00.0,38.6,31.8,23.2,0000.0,0010.67,0006.28,0005.49
2022-07-17 12:06:00,,0830.4,5.01,0.00,29.9,28.8,00.0,38.7,31.8,23.4,0000.0,0010.69,0006.33,0005.48
2022-07-17 12:07:00,,0830.4,4.99,0.00,29.9,28.8,00.0,38.7,31.9,23.4,0000.0,0010.61,0006.35,0005.48
2022-07-17 12:08:00,,0830.4,5.01,0.00,30.0,28.9,00.0,38.7,31.9,23.4,0000.0,0010.69,0006.37,0005.49
2022-07-17 12:09:00,,0830.5,4.99,0.00,30.0,28.9,00.0,38.7,31.9,23.5,0000.0,0010.78,0006.40,0005.50
2022-07-17 12:10:00,,0830.5,5.01,0.00,30.0,28.9,00.0,38.7,31.9,24.0,0000.0,0010.91,0006.44,0005.51
2022-07-17 12:11:00,,0830.5,5.00,0.00,30.0,29.0,00.0,38.7,31.9,24.3,0000.0,0011.02,0006.48,0005.53
2022-07-17 12:12:00,,0830.5,5.01,0.00,30.0,29.0,00.0,38.8,32.0,24.4,0000.0,0011.12,0006.52,0005.55
2022-07-17 12:13:00,,0830.6,5.01,0.00,30.1,29.0,00.0,38.8,32.0,24.4,0000.0,0011.12,0006.51,0005.54
2022-07-17 12:14:00,,0830.6,4.99,0.00,30.1,29.1,00.0,38.8,32.0,24.1,0000.0,0010.99,0006.46,0005.53
2022-07-17 12:15:00,,0830.6,5.01,0.00,30.1,29.1,00.0,38.8,32.0,23.7,0000.0,0010.70,0006.39,0005.51
2022-07-17 12:16:00,,0830.6,5.00,0.00,30.1,28.6,00.0,38.8,32.0,23.4,0000.0,0010.49,0006.35,0005.48
2022-07-17 12:17:00,,0830.6,5.00,0.00,30.1,27.8,00.0,38.7,31.9,23.3,0000.0,0010.12,0006.28,0005.45
2022-07-17 12:18:00,,0830.6,4.99,0.00,30.0,27.6,00.0,38.7,31.8,23.5,0000.0,0009.96,0006.25,0005.43
2022-07-17 12:19:00,,0830.6,5.01,0.00,29.9,27.6,00.0,38.7,31.7,23.6,0000.0,0009.89,0006.22,0005.41
2022-07-17 12:20:00,,0830.6,5.00,0.00,29.9,27.7,00.0,38.7,31.6,23.5,0000.0,0010.12,0006.20,0005.38
2022-07-17 12:21:00,,0830.6,5.00,0.00,29.9,27.8,00.0,38.7,31.6,23.4,0000.0,0010.18,0006.19,0005.36
2022-07-17 12:22:00,,0830.6,5.00,0.00,29.8,28.0,00.0,38.7,31.6,23.6,0000.0,0010.54,0006.12,0005.32
2022-07-17 12:23:00,,0830.6,4.99,0.00,29.8,28.1,00.0,38.7,31.6,23.8,0000.0,0010.62,0006.02,0005.27
2022-07-17 12:24:00,,0830.6,5.00,0.00,29.8,28.2,00.0,38.7,31.6,23.9,0000.0,0010.59,0005.98,0005.25
2022-07-17 12:25:00,,0830.6,5.00,0.00,29.8,28.3,00.0,38.7,31.7,23.9,0000.0,0010.63,0006.00,0005.26
2022-07-17 12:26:00,,0830.6,5.01,0.00,29.8,28.4,00.0,38.7,31.7,23.9,0000.0,0011.28,0006.01,0005.26
2022-07-17 12:27:00,,0830.6,4.99,0.00,29.9,28.5,00.0,38.7,31.7,24.0,0000.0,0012.64,0006.05,0005.28
2022-07-17 12:28:00,,0830.6,5.00,0.00,29.9,28.6,00.0,38.7,31.8,24.1,0000.0,0012.86,0006.12,0005.31
2022-07-17 12:29:00,,0830.6,5.00,0.00,29.9,28.6,00.0,38.7,31.8,24.1,0000.0,0012.94,0006.14,0005.32
2022-07-17 12:30:00,,0830.7,5.00,0.00,29.9,28.7,00.0,38.7,31.8,24.1,0000.0,0013.26,0006.12,0005.31
2022-07-17 12:31:00,,0830.7,5.00,0.00,29.9,28.8,00.0,38.7,31.8,24.2,0000.0,0013.58,0006.12,0005.31
2022-07-17 12:32:00,,0830.8,5.01,0.00,29.9,28.8,00.0,38.7,31.9,24.1,0000.0,0013.60,0006.12,0005.32
2022-07-17 12:33:00,,0830.8,5.00,0.00,30.0,28.9,00.0,38.7,31.9,24.1,0000.0,0013.03,0006.13,0005.33
2022-07-17 12:34:00,,0830.8,5.00,0.00,30.0,28.9,00.0,38.7,31.9,24.1,0000.0,0012.97,0006.17,0005.34
2022-07-17 12:35:00,,0830.8,5.00,0.00,30.0,28.9,00.0,38.8,31.9,24.2,0000.0,0012.92,0006.19,0005.35
2022-07-17 12:36:00,,0830.8,5.01,0.00,30.0,29.0,00.0,38.8,32.0,24.4,0000.0,0012.98,0006.21,0005.36
2022-07-17 12:37:00,,0830.8,5.00,0.00,30.0,29.0,00.0,38.8,32.0,24.8,0000.0,0012.34,0006.29,0005.40
2022-07-17 12:38:00,,0830.8,4.99,0.00,30.1,29.0,00.0,38.8,32.0,25.1,0000.0,0011.50,0006.33,0005.44
2022-07-17 12:39:00,,0830.8,5.01,0.00,30.1,29.1,00.0,38.8,32.0,25.1,0000.0,0011.95,0006.40,0005.48
2022-07-17 12:40:00,,0830.8,4.99,0.00,30.1,29.1,00.0,38.8,32.1,25.0,0000.0,0013.06,0006.52,0005.52
2022-07-17 12:41:00,,0830.8,5.01,0.00,30.1,29.1,00.0,38.8,32.1,25.1,0000.0,0015.24,0006.77,0005.58
2022-07-17 12:42:00,,0830.8,5.00,0.00,30.2,29.1,00.0,38.9,32.1,25.1,0000.0,0016.89,0007.04,0005.65
2022-07-17 12:43:00,,0830.7,5.01,0.00,30.2,28.5,00.0,38.8,32.0,25.1,0000.0,0019.21,0007.30,0005.70
2022-07-17 12:44:00,,0830.8,4.99,0.00,30.1,27.6,00.0,38.7,31.9,25.2,0000.0,0021.72,0007.59,0005.76
2022-07-17 12:45:00,,0830.8,5.00,0.00,30.1,27.3,00.0,38.7,31.7,25.3,0000.0,0023.20,0007.80,0005.83
2022-07-17 12:46:00,,0830.8,4.99,0.00,30.0,27.3,00.0,38.7,31.6,25.8,0000.0,0025.51,0007.97,0005.88
2022-07-17 12:47:00,,0830.7,5.00,0.00,29.9,27.4,00.0,38.7,31.6,26.1,0000.0,0027.30,0008.16,0005.93
2022-07-17 12:48:00,,0830.7,5.01,0.00,29.8,27.6,00.0,38.7,31.5,26.2,0000.0,0027.98,0008.28,0005.97
2022-07-17 12:49:00,,0830.8,5.00,0.00,29.8,27.7,00.0,38.7,31.6,26.0,0000.0,0028.34,0008.45,0005.98
2022-07-17 12:50:00,,0830.7,4.99,0.00,29.8,27.9,00.0,38.6,31.6,26.1,0000.0,0028.40,0008.63,0006.00
2022-07-17 12:51:00,,0830.8,5.01,0.00,29.8,28.0,00.0,38.6,31.6,26.0,0000.0,0027.99,0008.73,0006.03
2022-07-17 12:52:00,,0830.7,5.00,0.00,29.8,28.2,00.0,38.6,31.6,25.9,0000.0,0026.16,0008.69,0006.05
2022-07-17 12:53:00,,0830.8,4.99,0.00,29.8,28.3,00.0,38.6,31.7,25.8,0000.0,0025.06,0008.65,0006.05
2022-07-17 12:54:00,,0830.8,5.00,0.00,29.8,28.4,00.0,38.6,31.7,26.3,0000.0,0023.38,0008.59,0006.06
2022-07-17 12:55:00,,0830.8,5.00,0.00,29.8,28.5,00.0,38.6,31.7,26.3,0000.0,0021.39,0008.51,0006.06
2022-07-17 12:56:00,,0830.8,4.99,0.00,29.8,28.6,00.0,38.6,31.7,26.0,0000.0,0020.53,0008.46,0006.09
2022-07-17 12:57:00,,0830.7,4.99,0.00,29.9,28.6,00.0,38.6,31.7,26.4,0000.0,0019.87,0008.41,0006.10
2022-07-17 12:58:00,,0830.7,5.01,0.00,29.9,28.7,00.0,38.6,31.8,26.6,0000.0,0019.68,0008.40,0006.12
2022-07-17 12:59:00,,0830.8,5.00,0.00,29.9,28.7,00.0,38.7,31.8,26.2,0000.0,0020.21,0008.37,0006.13
